Location: Bois de la Silve
(44.4667°N, 6.7833°E)
Time: 22:51:01
(UTC+00:00)

USA 238 DEB - Pass Details

Date: 30 October 2020
Orbit: 1001 x 1211 km, 63.5° (Epoch: 22 November)

Event Time Altitude Azimuth Distance (km) Brightness Sun altitude
Exits shadow 01:14:50 14° 53° (NE) 2,582 6.1 -50.4°
Drops below altitude 10° 01:15:47 10° 49° (NE) 2,895 6.4 -50.3°
Sets 01:18:38 0° 42° (NE) 3,885 7.3 -49.9°
